TimeCDT,TemperatureF,Dew PointF,Humidity,Sea Level PressureIn,VisibilityMPH,Wind Direction,Wind SpeedMPH,Gust SpeedMPH,PrecipitationIn,Events,Conditions,WindDirDegrees,DateUTC
12:15 AM,41.4,19.9,42,30.33,10.0,North,9.2,-,N/A,,Clear,10,2012-10-12 05:15:00
12:35 AM,39.4,20.3,46,30.34,10.0,North,6.9,-,N/A,,Clear,360,2012-10-12 05:35:00
12:55 AM,37.9,21.2,51,30.35,10.0,North,8.1,-,N/A,,Clear,360,2012-10-12 05:55:00
1:15 AM,36.7,21.6,54,30.35,10.0,North,6.9,-,N/A,,Clear,360,2012-10-12 06:15:00
1:35 AM,35.6,21.7,57,30.36,10.0,North,5.8,-,N/A,,Clear,360,2012-10-12 06:35:00
1:55 AM,33.4,22.1,63,30.37,10.0,North,5.8,-,N/A,,Clear,350,2012-10-12 06:55:00
2:15 AM,33.4,21.9,63,30.37,10.0,North,8.1,-,N/A,,Clear,350,2012-10-12 07:15:00
2:35 AM,34.7,21.9,60,30.37,10.0,North,5.8,-,N/A,,Clear,350,2012-10-12 07:35:00
3:15 AM,32.0,22.1,67,30.37,10.0,North,5.8,-,N/A,,Clear,350,2012-10-12 08:15:00
3:35 AM,30.2,22.1,72,30.38,10.0,North,3.5,-,N/A,,Clear,360,2012-10-12 08:35:00
3:55 AM,31.3,22.6,70,30.39,10.0,North,3.5,-,N/A,,Clear,360,2012-10-12 08:55:00
4:15 AM,31.3,22.3,69,30.39,10.0,North,4.6,-,N/A,,Clear,360,2012-10-12 09:15:00
4:35 AM,27.1,21.6,80,30.40,10.0,Calm,Calm,-,N/A,,Clear,0,2012-10-12 09:35:00
4:55 AM,30.2,22.5,73,30.40,10.0,Calm,Calm,-,N/A,,Clear,0,2012-10-12 09:55:00
5:15 AM,27.5,21.4,78,30.40,10.0,Calm,Calm,-,N/A,,Clear,0,2012-10-12 10:15:00
5:35 AM,28.9,22.6,77,30.41,10.0,Calm,Calm,-,N/A,,Clear,0,2012-10-12 10:35:00
5:55 AM,25.0,20.3,82,30.41,10.0,Calm,Calm,-,N/A,,Clear,0,2012-10-12 10:55:00
6:15 AM,25.2,21.7,87,30.42,10.0,Calm,Calm,-,N/A,,Clear,0,2012-10-12 11:15:00
6:35 AM,25.2,21.2,85,30.42,10.0,Calm,Calm,-,N/A,,Clear,0,2012-10-12 11:35:00
6:55 AM,26.4,21.7,82,30.43,10.0,Calm,Calm,-,N/A,,Clear,0,2012-10-12 11:55:00
7:15 AM,23.9,19.9,85,30.43,10.0,Calm,Calm,-,N/A,,Clear,0,2012-10-12 12:15:00
7:35 AM,24.6,21.0,86,30.44,10.0,Calm,Calm,-,N/A,,Clear,0,2012-10-12 12:35:00
7:55 AM,26.4,21.9,83,30.45,10.0,Calm,Calm,-,N/A,,Clear,0,2012-10-12 12:55:00
8:15 AM,29.3,25.7,86,30.45,10.0,Calm,Calm,-,N/A,,Clear,0,2012-10-12 13:15:00
8:35 AM,32.5,27.3,81,30.45,10.0,Calm,Calm,-,N/A,,Clear,0,2012-10-12 13:35:00
8:55 AM,37.0,26.1,65,30.45,10.0,Calm,Calm,-,N/A,,Clear,0,2012-10-12 13:55:00
9:15 AM,37.9,25.7,61,30.45,10.0,East,6.9,-,N/A,,Clear,90,2012-10-12 14:15:00
9:35 AM,40.8,27.0,58,30.47,10.0,East,4.6,-,N/A,,Clear,80,2012-10-12 14:35:00
9:55 AM,42.6,26.1,52,30.47,10.0,ENE,5.8,-,N/A,,Clear,70,2012-10-12 14:55:00
10:15 AM,45.0,24.1,44,30.47,10.0,ENE,8.1,-,N/A,,Clear,70,2012-10-12 15:15:00
10:35 AM,45.1,20.7,38,30.47,10.0,ESE,8.1,-,N/A,,Clear,120,2012-10-12 15:35:00
11:15 AM,46.2,18.3,33,30.47,10.0,East,8.1,16.1,N/A,,Clear,80,2012-10-12 16:15:00
11:35 AM,47.1,18.0,31,30.46,10.0,ESE,9.2,-,N/A,,Clear,120,2012-10-12 16:35:00
12:15 PM,48.7,16.7,28,30.44,10.0,East,10.4,-,N/A,,Clear,80,2012-10-12 17:15:00
12:35 PM,48.9,16.3,27,30.44,10.0,ESE,9.2,18.4,N/A,,Clear,110,2012-10-12 17:35:00
12:55 PM,49.6,14.9,25,30.43,10.0,East,9.2,-,N/A,,Clear,80,2012-10-12 17:55:00
1:35 PM,50.7,13.5,23,30.40,10.0,SE,6.9,-,N/A,,Clear,130,2012-10-12 18:35:00
1:55 PM,51.8,12.9,21,30.40,10.0,ESE,5.8,-,N/A,,Clear,120,2012-10-12 18:55:00
2:15 PM,52.5,10.9,19,30.40,10.0,South,5.8,-,N/A,,Clear,170,2012-10-12 19:15:00
2:35 PM,53.1,12.2,20,30.38,10.0,South,6.9,-,N/A,,Clear,180,2012-10-12 19:35:00
2:55 PM,53.1,9.9,18,30.37,10.0,South,10.4,-,N/A,,Clear,190,2012-10-12 19:55:00
3:15 PM,53.2,12.7,20,30.37,10.0,South,6.9,-,N/A,,Clear,180,2012-10-12 20:15:00
3:35 PM,54.0,11.3,18,30.35,10.0,SSW,8.1,-,N/A,,Clear,210,2012-10-12 20:35:00
3:55 PM,54.0,12.2,19,30.34,10.0,SSE,11.5,-,N/A,,Clear,150,2012-10-12 20:55:00
4:15 PM,54.3,14.5,21,30.34,10.0,SSE,11.5,-,N/A,,Clear,150,2012-10-12 21:15:00
4:35 PM,54.5,15.6,22,30.33,10.0,SSW,8.1,-,N/A,,Clear,200,2012-10-12 21:35:00
4:55 PM,54.5,15.8,22,30.33,10.0,SW,8.1,-,N/A,,Clear,220,2012-10-12 21:55:00
5:15 PM,53.6,15.4,22,30.32,10.0,SSW,11.5,-,N/A,,Clear,200,2012-10-12 22:15:00
5:55 PM,52.0,16.3,24,30.30,10.0,South,5.8,-,N/A,,Clear,170,2012-10-12 22:55:00
6:15 PM,50.4,17.2,27,30.30,10.0,South,8.1,-,N/A,,Clear,180,2012-10-12 23:15:00
6:35 PM,49.1,17.6,29,30.30,10.0,South,4.6,-,N/A,,Clear,190,2012-10-12 23:35:00
6:55 PM,45.5,19.8,36,30.29,10.0,SE,3.5,-,N/A,,Clear,130,2012-10-12 23:55:00
7:15 PM,42.6,22.5,45,30.29,10.0,Calm,Calm,-,N/A,,Clear,0,2012-10-13 00:15:00
7:35 PM,37.8,23.0,55,30.28,10.0,Calm,Calm,-,N/A,,Clear,0,2012-10-13 00:35:00
7:55 PM,37.6,23.9,58,30.28,10.0,Calm,Calm,-,N/A,,Clear,0,2012-10-13 00:55:00
8:15 PM,36.7,24.3,61,30.27,10.0,Calm,Calm,-,N/A,,Clear,0,2012-10-13 01:15:00
8:35 PM,35.8,24.4,63,30.27,10.0,Calm,Calm,-,N/A,,Clear,0,2012-10-13 01:35:00
8:55 PM,34.2,24.1,67,30.26,10.0,Calm,Calm,-,N/A,,Clear,0,2012-10-13 01:55:00
9:15 PM,34.9,24.3,65,30.25,10.0,Calm,Calm,-,N/A,,Clear,0,2012-10-13 02:15:00
9:35 PM,43.9,29.7,57,30.24,10.0,SE,8.1,-,N/A,,Clear,140,2012-10-13 02:35:00
10:02 PM,44.6,30.2,57,30.24,10.0,SE,9.2,-,N/A,,Clear,130,2012-10-13 03:02:00
10:16 PM,44.6,30.2,57,30.24,10.0,SE,10.4,16.1,N/A,,Clear,140,2012-10-13 03:16:00
10:36 PM,44.6,30.2,57,30.24,10.0,SE,9.2,-,N/A,,Clear,140,2012-10-13 03:36:00
11:36 PM,44.6,30.2,57,30.23,10.0,SSE,6.9,-,N/A,,Clear,150,2012-10-13 04:36:00
11:56 PM,46.4,30.2,53,30.22,10.0,SSE,11.5,17.3,N/A,,Mostly Cloudy,150,2012-10-13 04:56:00